sat.trackr.live / text

‹ back to catalog

STARLINK-11082 [DTC]

NORAD 59711 · 2024-088D

PAYLOAD ACTIVE UNKNOWN

§ Identity

Operator
Country
US
Launch date
2024-05-10
Launch site
AFWTR
Launch vehicle
Mass (kg)
RCS (m²)

Purposes: comms

External: N2YO · Heavens-Above · Gunter

§ Orbital elements

Epoch: 2026-05-25T04:22:25.662144Z

Period
91.74 min
Inclination
53.1585°
Eccentricity
0.0001068
Mean motion
15.69706896 rev/d
Perigee alt
359.0 km
Apogee alt
360.5 km
Semi-major
6,737.9 km
B*
1.1236e-5
RAAN
309.3822°
Arg perigee
84.6842°
Mean anomaly
275.4297°
Rev number
11,828

§ Raw data

STARLINK-11082 [DTC]1 59711U 24088D   26145.18224146  .00000773  00000+0  11236-4 0  99942 59711  53.1585 309.3822 0001068  84.6842 275.4297 15.69706896118289

JSON: /api/v1/satellites/59711 · /tle

For live sub-satellite position, see the globe view (requires WebGL).

§ Visibility from observer

Set your observer location to see the next 7 days of passes ≥ 10°. The values pass through the URL so the page stays shareable.

No JS? Fill the form by hand. The geolocation button needs JavaScript.